Theta_e
327 324 322 320 319 319 318 318 317 316 316 315 314 314 315 315 315 315 315 315 313 312 311 311 311 312 312 311 309 309 310 310 309 310 309 309 309 309 310 310 309 307 308 308 308 310 311 309 307 305 304 303 304 303 303 302 301 303 304 302 302 302 302
326 323 321 319 318 318 317 316 315 315 314 313 313 312 313 313 313 314 314 313 312 310 310 310 310 311 311 310 309 309 309 309 309 309 308 307 307 308 308 308 307 306 306 306 307 307 307 307 306 305 304 303 303 303 302 301 301 302 303 302 302 302 301
324 321 319 318 318 317 316 314 313 313 312 311 311 310 311 311 311 312 312 311 310 309 310 310 309 309 310 309 309 309 308 308 308 308 307 306 306 307 307 306 307 306 306 306 306 306 305 305 305 304 303 302 303 302 302 301 301 301 302 302 301 301 301
322 320 319 317 317 316 314 312 311 311 310 310 309 309 309 310 310 311 310 309 308 308 309 309 308 308 308 308 308 308 308 308 307 307 306 305 305 306 305 305 305 305 305 304 304 304 303 303 303 302 302 301 302 302 301 300 300 301 301 301 300 300 300
322 320 318 317 316 315 313 310 309 309 309 308 308 308 308 309 309 309 309 308 307 307 308 309 308 307 307 307 307 307 307 307 307 306 304 304 305 305 304 304 304 303 302 302 301 301 301 301 301 301 300 300 301 300 299 299 299 299 300 299 299 299 299
321 320 318 317 316 315 313 310 308 307 307 307 307 307 308 308 308 308 308 308 307 306 308 308 308 307 307 307 306 307 307 307 306 305 304 304 304 304 303 303 302 301 299 298 298 298 299 299 299 299 299 299 299 298 298 298 298 298 299 298 298 299 298
321 318 317 316 315 315 313 310 308 307 307 306 306 307 307 307 307 307 307 307 307 306 307 307 307 307 306 306 306 306 306 306 305 304 304 303 303 303 302 302 301 299 297 296 296 297 297 298 298 298 298 298 298 297 297 297 297 298 298 298 298 298 298
320 317 317 316 315 314 312 309 308 307 307 306 305 306 306 307 307 307 307 307 307 306 306 306 306 306 306 306 306 306 305 305 305 304 303 303 302 302 300 299 298 297 296 296 297 297 297 297 297 298 297 297 297 297 297 297 297 297 297 297 297 297 297
318 316 315 314 313 312 310 308 307 307 306 306 305 305 305 306 306 306 306 306 306 306 306 306 306 306 306 305 305 305 304 304 304 303 302 302 302 301 298 296 296 296 296 296 297 297 297 297 297 297 297 297 297 297 297 297 297 297 297 297 297 297 296
316 315 314 313 312 310 308 306 306 306 306 305 305 305 305 305 306 306 306 305 305 306 305 305 305 305 306 305 304 304 304 304 303 302 302 301 301 300 297 296 296 297 297 297 297 297 297 296 296 296 296 297 297 297 297 297 297 297 297 296 296 297 296
315 314 313 312 311 308 306 305 305 305 305 305 305 305 304 305 305 305 306 305 305 305 305 305 305 305 305 304 304 304 303 303 302 302 301 301 301 299 296 296 297 297 297 297 297 296 296 295 295 296 296 296 296 296 297 297 296 296 296 296 296 296 296
314 313 312 312 309 307 306 306 305 305 305 305 305 305 304 304 304 305 305 305 305 305 304 304 304 304 304 304 304 303 303 303 302 302 301 301 300 298 296 297 297 297 297 297 297 296 294 294 295 295 296 296 296 296 296 296 296 296 296 296 296 296 296
313 312 311 310 308 306 306 306 306 306 305 305 305 305 304 304 304 304 305 305 305 305 304 304 304 304 304 304 304 303 303 302 302 301 301 300 299 297 297 297 298 298 297 297 296 295 294 294 294 295 296 296 296 296 296 296 296 296 296 296 296 296 296
312 311 310 308 307 306 306 306 306 305 305 304 304 304 304 303 303 303 304 304 305 305 304 304 304 304 304 304 303 303 302 302 301 301 300 299 298 297 297 298 298 298 297 296 296 295 293 293 295 296 296 296 296 296 296 296 296 296 296 296 296 296 295
311 309 308 307 307 306 306 305 305 305 304 304 303 303 302 302 302 302 303 303 304 305 305 304 304 304 304 303 303 302 302 301 301 300 299 298 298 298 298 298 298 297 296 296 296 295 293 294 295 296 296 296 296 296 296 296 296 296 296 296 296 296 295
309 308 307 306 306 306 306 306 305 304 303 303 302 302 300 299 299 299 301 302 304 305 304 304 304 304 304 303 302 302 302 301 301 300 298 298 298 298 298 298 297 297 296 295 296 295 293 294 295 295 296 296 296 296 296 296 295 295 296 296 296 296 295
308 307 306 305 305 305 305 305 304 304 303 303 302 301 299 297 295 295 297 300 303 304 304 304 304 304 304 303 302 302 301 301 300 299 298 298 298 298 298 298 297 297 295 295 296 295 294 294 294 295 295 296 296 296 296 296 295 295 295 296 296 296 296
307 306 306 305 305 305 305 305 304 303 303 302 302 300 298 295 293 293 294 297 301 304 304 304 304 303 303 303 302 301 301 301 300 299 299 298 298 298 298 297 297 296 295 295 295 295 294 294 294 294 294 294 295 295 295 295 295 295 295 295 296 296 295
306 305 305 305 304 304 304 304 304 303 303 301 299 296 294 293 293 294 294 296 300 303 304 304 303 303 303 302 302 301 301 301 300 300 299 298 298 297 297 297 296 296 295 295 295 294 293 293 294 294 294 294 294 294 294 294 294 295 295 295 295 295 295
305 305 305 304 304 304 304 304 303 303 302 300 296 293 293 293 294 294 294 296 300 303 303 303 303 303 303 302 301 300 300 300 300 300 299 298 298 298 297 296 296 296 295 295 294 293 293 293 294 294 294 294 294 294 294 294 294 294 294 295 295 295 295
305 305 304 304 304 304 304 304 303 303 302 299 295 293 293 293 294 294 295 296 299 302 303 303 303 303 302 302 301 301 300 300 299 300 299 298 298 298 297 296 296 296 295 293 293 293 293 294 294 294 294 294 294 294 294 294 294 294 294 294 294 294 295
304 304 304 304 304 304 303 303 303 302 301 298 294 293 293 294 294 294 295 297 299 301 302 302 302 302 302 301 301 301 300 299 299 299 299 299 298 298 297 296 296 296 294 293 293 294 294 294 294 294 294 294 294 294 294 294 294 294 294 294 294 294 294
304 304 304 303 304 303 303 303 303 302 300 295 293 293 294 294 294 294 296 297 298 300 301 301 302 301 301 301 301 300 300 299 299 299 299 299 298 297 297 296 296 295 294 293 294 294 294 294 294 294 294 294 294 294 293 293 293 293 293 294 294 294 294
304 304 304 304 304 304 304 303 303 301 298 294 293 293 293 294 294 294 296 297 298 299 300 300 301 301 301 300 300 300 300 300 299 298 298 299 298 297 296 296 296 295 294 294 294 294 295 295 294 294 294 293 293 293 293 293 293 293 293 293 294 294 294
303 303 303 304 304 304 303 303 302 301 299 297 294 292 293 293 293 294 295 296 298 299 299 300 300 300 300 300 300 300 300 300 299 298 298 298 298 297 296 296 296 294 294 294 295 294 295 295 294 293 293 292 292 292 292 293 293 293 293 293 293 294 294
303 303 303 303 304 304 303 303 302 301 301 299 295 292 293 293 293 294 295 296 298 298 299 299 299 299 300 299 300 300 299 299 299 298 298 298 297 297 296 296 296 295 294 294 295 295 295 294 293 293 292 292 291 291 291 292 292 292 292 293 293 293 293
303 303 303 303 303 303 303 303 302 302 302 300 295 292 293 293 293 293 294 295 297 298 298 298 298 298 298 298 299 299 299 299 299 298 298 298 297 297 296 296 296 295 294 294 295 295 295 294 293 292 292 291 291 291 291 291 291 292 292 292 293 293 293
303 303 303 303 303 303 303 303 303 302 302 301 297 293 292 292 292 292 293 294 295 296 296 297 298 298 297 296 297 298 299 299 298 298 297 298 297 297 297 296 296 295 294 295 295 295 294 294 293 293 292 291 291 290 290 290 291 291 291 292 292 292 293
302 302 303 302 303 303 303 303 303 303 302 302 299 294 291 292 291 291 291 292 292 292 293 294 295 295 294 293 294 296 298 298 298 298 297 297 297 297 297 296 295 294 295 295 295 294 294 293 293 292 292 291 290 290 290 290 290 291 292 292 292 292 292
302 302 302 302 303 303 303 303 303 303 302 302 301 296 292 292 292 292 292 291 291 291 291 291 291 292 292 292 293 295 296 297 298 297 297 297 297 296 295 295 295 295 295 295 295 294 293 293 293 292 292 291 290 290 290 289 290 292 293 293 292 292 293
302 302 302 302 302 302 302 302 302 303 302 302 301 298 294 294 295 295 295 295 293 291 290 290 290 291 291 291 291 293 294 295 296 296 296 297 296 295 295 295 295 295 295 295 294 293 293 293 293 292 292 291 290 290 290 289 290 291 292 292 292 293 293
302 302 302 302 301 301 301 301 301 302 302 302 302 299 296 294 296 297 298 297 296 294 291 290 290 290 291 291 291 291 292 293 294 295 295 295 295 294 295 295 295 295 295 295 294 293 293 293 293 292 291 291 291 290 289 289 289 290 291 291 292 292 292
301 301 301 302 301 301 301 300 299 300 301 301 300 298 295 295 297 298 298 298 298 296 293 291 290 290 291 291 291 291 291 293 294 294 294 294 295 295 295 295 295 295 295 295 294 293 293 293 292 292 291 291 291 290 289 289 290 290 290 290 291 291 292
301 301 301 301 301 301 300 298 296 296 298 298 298 296 296 297 298 298 298 299 298 297 295 292 291 290 291 290 290 291 292 293 294 294 294 295 295 295 295 296 296 295 295 294 294 293 292 292 292 291 291 290 290 290 289 289 290 290 290 290 291 291 291
301 302 301 301 301 300 299 299 298 297 297 297 297 297 298 298 299 299 299 299 299 298 295 293 292 291 290 290 290 291 293 293 294 294 295 295 295 295 296 296 295 295 295 294 293 293 292 292 291 291 290 290 290 289 289 290 290 290 290 290 290 290 291
302 301 301 301 300 300 300 300 300 300 299 299 299 299 299 299 299 299 299 299 299 298 296 294 292 291 290 290 290 292 293 294 294 295 295 295 295 295 295 296 295 295 294 294 293 293 292 291 291 291 290 290 289 289 290 290 290 290 290 290 290 290 290
302 301 301 301 301 301 301 301 301 300 300 300 300 300 300 300 300 300 299 299 299 298 296 294 293 291 290 290 291 293 294 294 294 295 295 295 295 295 295 296 295 295 294 294 293 293 293 291 291 291 291 290 288 288 290 290 290 289 289 289 289 289 290
Wind_Speed
21 20 19 18 18 17 16 15 14 14 13 12 12 11 12 11 11 12 13 14 15 16 17 18 19 19 20 20 20 22 23 22 23 25 24 22 22 20 19 19 19 20 19 18 14 9 4 4 10 14 19 24 23 23 27 27 27 26 27 28 28 29 30
22 22 20 19 18 17 17 16 15 15 14 14 13 13 13 13 13 14 14 15 17 17 18 19 19 19 19 20 21 22 22 23 23 25 26 26 25 23 21 20 19 19 19 19 19 15 8 4 6 8 16 22 21 23 26 27 26 24 25 27 28 29 29
24 23 21 20 19 17 18 18 16 16 15 15 14 14 14 14 15 16 16 17 17 18 18 19 20 20 20 20 21 21 22 22 23 25 27 27 26 25 24 22 20 18 15 15 16 16 11 7 6 7 15 18 16 19 24 26 24 22 23 25 27 29 29
25 24 23 22 20 19 20 19 19 18 17 16 15 15 15 15 16 17 17 18 18 18 18 19 20 20 20 20 20 21 22 22 23 25 26 25 25 25 25 25 23 21 18 15 16 16 12 8 7 6 13 19 14 16 22 23 22 20 20 24 27 29 29
24 23 23 22 21 21 21 21 20 20 18 17 16 16 16 16 17 17 18 18 18 18 18 19 20 20 20 20 20 21 22 22 22 23 25 24 24 25 26 25 25 25 24 20 18 19 16 13 10 7 12 17 12 15 22 21 19 18 18 22 27 26 27
23 22 22 22 21 21 21 20 20 20 20 18 17 17 16 16 17 17 18 18 18 18 19 19 19 19 20 20 21 21 22 22 22 23 25 24 24 24 24 24 24 25 25 23 22 22 19 18 16 10 13 16 10 15 22 20 18 17 16 23 26 24 28
22 22 22 22 21 20 19 19 20 20 20 18 17 16 16 16 17 17 18 18 18 18 18 19 19 19 19 21 21 22 22 21 22 23 24 23 22 22 21 22 23 24 25 25 25 24 22 20 18 14 14 15 11 14 19 18 17 16 17 25 26 23 29
23 23 23 22 21 20 19 19 19 19 19 18 17 16 15 16 18 17 18 18 18 18 18 18 19 19 19 20 21 21 21 21 21 23 23 23 22 21 21 21 22 24 25 25 25 24 22 20 18 17 14 11 8 10 14 15 16 16 19 27 26 24 31
25 24 24 22 20 19 18 19 20 19 19 18 17 17 16 17 17 18 18 18 17 17 18 17 18 19 19 20 21 21 21 20 21 22 22 22 22 22 23 23 23 24 24 24 24 22 21 20 18 17 16 12 7 6 8 10 11 15 23 29 26 28 36
24 24 23 22 20 19 19 19 20 20 19 18 18 18 17 17 17 18 18 18 17 17 18 18 18 18 19 20 21 21 21 20 20 21 21 21 22 22 23 24 25 24 23 23 23 22 21 20 19 17 16 14 10 6 4 6 7 12 24 29 25 29 39
23 22 22 21 20 19 20 20 20 20 19 19 18 18 17 18 17 18 18 18 18 18 18 18 18 18 18 20 20 20 20 19 19 20 20 20 21 21 23 24 24 23 21 21 21 22 22 21 19 17 15 14 12 9 5 6 6 11 23 29 27 30 36
21 21 20 19 19 20 21 21 21 21 20 19 18 18 17 17 17 17 18 18 18 19 19 19 18 18 19 19 18 18 18 17 18 19 19 19 20 21 22 23 22 21 20 19 20 23 25 23 20 17 15 14 13 12 10 6 6 11 20 25 28 32 33
19 19 19 19 20 21 22 21 20 20 19 18 18 17 16 15 16 16 17 18 18 19 19 19 19 19 19 18 17 17 17 16 17 18 18 19 20 20 21 21 20 18 18 19 21 25 26 24 20 17 16 15 14 13 13 9 6 11 19 21 25 30 32
19 19 19 20 22 22 21 21 20 19 19 18 16 15 14 14 14 14 16 17 18 18 18 18 18 18 18 17 16 17 16 15 16 16 17 18 19 20 20 19 17 16 16 19 22 25 27 24 20 17 16 16 16 15 14 12 9 12 19 22 24 27 30
19 19 21 22 23 22 21 20 20 19 19 17 15 13 13 12 12 13 15 16 17 17 17 17 17 17 17 17 16 16 15 14 14 14 16 17 17 17 17 16 15 15 17 20 22 24 26 25 21 17 17 17 17 19 17 16 14 13 18 24 26 28 30
20 21 22 23 23 22 21 20 19 19 19 17 14 12 11 11 11 12 14 15 16 16 16 16 16 16 16 16 16 15 13 13 13 13 14 16 15 15 15 14 14 16 19 20 20 22 24 25 22 18 17 18 19 21 21 20 18 16 18 24 27 28 30
23 23 23 23 23 22 21 20 20 19 18 16 13 11 10 10 11 12 13 15 15 15 15 15 15 15 14 15 15 14 12 12 12 12 12 14 14 13 12 13 14 16 20 20 19 20 22 23 23 20 19 20 20 21 23 23 22 20 20 23 27 29 30
23 24 24 23 23 22 22 21 20 18 16 14 11 9 9 10 12 13 14 14 15 16 15 14 14 14 13 14 14 14 12 10 11 10 10 12 13 12 12 13 14 16 18 19 19 20 21 21 22 22 22 22 22 22 24 25 25 24 22 23 27 30 30
23 24 24 24 23 22 22 21 19 17 14 12 11 10 11 12 13 14 14 15 15 16 15 14 14 13 12 13 13 12 10 9 8 8 8 10 10 11 13 14 15 17 17 18 19 20 21 21 21 23 24 24 24 24 25 26 27 26 24 25 27 29 30
24 24 24 24 24 22 21 20 18 16 13 11 12 12 13 14 14 14 14 15 15 15 14 13 13 12 12 12 12 11 9 8 6 6 7 7 7 9 13 14 15 16 17 17 19 20 20 21 22 23 25 26 27 27 27 28 28 27 26 26 26 27 29
25 25 25 24 23 22 21 20 18 16 13 11 12 13 14 15 14 14 14 14 15 15 14 13 12 11 11 11 11 9 8 8 8 6 6 5 6 9 12 13 14 15 17 17 18 20 20 21 23 24 25 27 28 28 28 28 28 27 26 25 26 27 27
25 25 25 25 24 22 21 20 19 16 14 13 13 13 14 14 14 15 15 15 15 14 14 13 12 11 10 9 8 8 7 8 9 7 5 3 4 9 11 11 11 15 18 18 18 20 22 23 25 27 28 28 28 28 28 28 28 27 25 24 25 26 26
26 26 25 25 25 24 23 22 20 17 15 14 14 14 14 14 14 15 15 15 15 15 14 13 12 10 9 8 8 7 7 7 7 6 3 2 3 8 9 8 11 16 18 18 20 22 24 26 27 28 28 27 28 29 28 28 28 27 25 23 25 26 24
27 26 26 26 26 26 25 23 21 19 17 15 14 14 14 14 14 14 15 15 15 15 14 13 11 10 9 8 7 6 5 4 4 4 3 2 3 7 7 7 12 16 18 19 22 25 27 29 28 27 27 27 27 27 28 27 28 28 26 24 26 27 24
28 27 27 27 26 26 25 24 22 20 18 16 15 15 15 14 14 14 14 15 15 15 13 11 9 8 7 6 5 4 4 4 4 6 4 4 3 6 6 8 14 16 18 21 24 27 29 29 29 28 28 28 27 28 28 27 27 29 28 27 27 27 27
28 28 27 27 26 26 25 24 22 20 18 15 15 16 16 16 15 14 14 15 15 14 13 10 8 6 5 4 4 4 4 4 5 7 5 5 4 5 6 10 14 15 18 22 24 28 30 29 29 29 29 29 30 29 30 29 29 29 30 28 27 29 31
29 28 28 28 27 26 24 23 22 20 18 17 16 17 18 18 18 17 16 15 14 13 11 9 7 5 5 4 3 4 4 4 5 7 6 5 4 4 7 11 15 16 19 22 24 27 29 28 29 30 30 31 31 32 31 31 32 32 31 31 30 31 34
30 29 28 28 27 26 25 23 22 21 19 17 16 17 18 19 20 19 18 16 15 13 10 8 6 4 3 3 4 5 4 4 4 6 7 6 4 4 7 12 15 17 19 21 24 26 26 27 29 30 31 32 32 33 32 32 33 32 32 33 33 33 35
30 29 29 28 28 27 26 24 23 22 20 18 17 17 19 20 20 20 19 17 16 15 12 9 6 4 2 2 3 5 6 5 4 5 6 7 6 5 7 11 14 16 18 21 23 23 25 27 28 30 31 33 33 33 33 33 32 30 31 33 34 35 35
31 30 30 29 29 28 27 25 24 23 22 20 19 18 19 21 21 20 19 17 16 16 13 10 8 6 4 4 5 6 6 6 5 4 5 6 6 5 7 10 12 15 18 20 21 23 25 26 28 30 31 32 33 33 33 34 32 30 32 33 34 36 37
32 31 31 30 30 28 27 26 25 23 22 22 20 19 19 19 19 17 17 16 16 15 14 12 9 7 6 5 6 7 6 5 5 4 4 4 4 5 7 9 12 16 18 19 20 23 25 26 28 29 30 32 32 32 34 35 34 33 34 35 36 37 38
33 32 32 31 30 29 27 26 25 24 23 22 21 20 19 18 17 15 13 13 13 13 13 12 10 8 6 6 6 6 6 6 6 6 6 5 5 7 9 10 13 16 17 17 20 23 25 25 27 28 29 31 31 31 33 34 33 34 35 35 37 38 39
34 33 33 32 30 29 26 24 24 24 24 22 21 21 20 18 16 14 12 11 10 11 11 11 9 8 6 6 6 6 6 8 9 9 9 8 7 8 10 12 14 15 16 17 20 23 24 25 25 27 29 30 30 30 32 32 31 33 34 34 36 37 39
34 33 33 32 30 28 25 24 24 24 24 23 22 21 20 17 16 14 13 11 9 9 8 9 8 7 6 6 6 7 7 8 10 9 9 8 9 10 12 14 14 15 16 17 19 22 23 24 25 26 28 28 28 29 30 31 32 33 33 34 36 37 38
34 33 32 31 30 27 26 25 24 24 24 24 22 21 19 17 16 14 13 12 10 8 7 7 6 6 5 6 6 6 7 8 9 9 8 9 9 11 13 14 14 15 15 16 19 22 23 24 26 27 27 28 28 30 30 30 32 33 34 35 35 36 38
34 34 33 31 29 28 27 27 26 25 24 23 22 20 20 18 17 16 14 13 11 9 7 6 5 4 5 6 6 6 7 9 9 9 9 9 10 11 12 12 13 13 14 16 20 21 22 25 26 27 28 29 29 30 31 31 32 33 34 34 35 36 38
35 34 33 31 29 29 29 28 28 27 25 24 22 21 21 20 19 18 17 15 14 12 9 7 5 3 4 5 5 6 8 8 8 8 8 8 9 10 11 11 12 12 12 16 19 20 21 25 26 27 30 31 31 31 31 32 32 32 33 34 34 34 37
Wind_Direction
140 135 133 127 121 116 110 107 104 102 100 96 97 101 107 108 106 107 104 100 94 86 81 78 80 81 77 72 71 74 74 73 71 68 66 67 67 67 70 73 64 56 52 46 38 21 355 314 336 354 357 356 1 4 4 5 6 9 9 7 6 4 2
142 138 135 128 123 116 108 106 104 102 100 98 98 99 105 106 105 107 104 99 93 86 83 82 84 84 80 76 74 74 75 73 71 72 74 73 72 71 69 68 63 57 54 47 39 33 24 347 332 340 344 349 356 358 359 1 3 7 7 4 4 3 1
144 142 138 130 124 116 109 109 107 105 104 102 101 100 103 104 104 105 100 95 92 88 87 87 85 84 82 80 77 76 76 75 74 75 76 75 73 72 67 64 60 53 49 43 37 33 28 12 345 331 340 344 344 347 352 355 356 2 4 2 2 1 359
149 146 140 131 125 118 112 111 110 108 107 105 103 102 102 104 105 103 97 93 90 87 90 90 87 85 84 83 80 79 78 76 75 75 74 74 74 71 67 64 61 57 54 49 41 36 33 18 353 332 339 340 331 333 345 350 352 357 2 1 359 359 356
155 150 142 134 129 122 116 114 111 110 108 107 105 103 103 105 105 102 98 92 87 87 93 93 89 86 85 84 82 81 79 76 75 72 71 73 73 71 69 67 65 62 58 54 49 44 40 29 14 351 340 343 333 329 341 347 351 356 360 358 357 356 354
156 151 144 136 131 125 121 118 113 111 109 107 105 103 104 105 103 101 98 92 88 91 97 96 92 89 87 85 83 82 80 77 75 74 74 75 72 69 69 67 63 60 57 54 53 50 44 35 25 7 346 347 334 324 337 346 350 351 354 355 355 354 352
155 149 143 137 132 127 125 122 117 113 109 105 104 104 106 106 103 102 100 97 94 96 99 97 94 93 91 87 84 83 81 77 79 81 80 77 72 67 64 62 61 61 59 56 55 51 45 37 28 13 352 347 337 329 335 342 349 350 347 349 351 352 351
152 146 140 137 132 130 129 127 122 116 110 106 105 107 111 110 107 105 104 103 101 99 99 98 95 94 92 88 85 85 82 78 81 84 81 76 70 63 58 60 64 65 60 54 52 48 43 39 30 20 9 356 343 338 336 337 348 350 344 345 347 349 350
147 141 137 133 131 130 130 128 124 119 113 109 106 108 112 113 110 108 106 104 104 102 100 98 96 94 91 88 84 84 83 79 80 82 77 72 66 60 59 62 66 64 56 51 47 42 37 34 29 24 20 13 358 342 336 335 343 344 343 346 345 344 347
142 138 135 132 129 128 126 125 123 120 116 112 109 108 112 114 112 110 108 106 106 105 101 97 95 93 91 88 83 82 83 80 81 80 74 69 64 59 60 62 63 59 51 47 42 36 31 28 26 25 22 20 12 355 331 330 335 334 338 343 341 338 343
139 136 134 132 131 128 124 122 121 119 117 115 116 115 115 118 117 114 112 109 107 107 103 96 93 92 91 88 84 83 83 82 83 81 72 67 61 57 59 60 58 53 47 43 38 31 28 24 23 25 26 26 22 15 352 322 320 332 334 336 337 337 340
138 136 135 134 133 130 125 122 120 120 121 123 124 123 121 121 121 119 116 112 108 106 102 97 94 91 88 87 86 86 84 81 82 79 71 63 57 54 58 57 53 50 44 39 34 27 24 22 23 28 31 32 28 19 2 333 308 328 333 331 333 337 339
139 138 137 137 134 129 126 125 124 125 128 130 129 127 124 122 122 122 122 117 111 107 104 100 95 93 89 86 88 89 86 80 78 76 69 61 55 53 55 54 49 46 39 33 29 24 21 21 26 33 35 29 27 18 359 340 301 313 328 328 328 334 338
141 140 139 138 133 130 129 129 129 131 132 132 132 131 127 126 126 126 126 122 116 109 106 102 98 96 92 88 87 88 86 81 78 72 64 59 54 51 52 52 49 42 33 29 26 21 19 21 26 32 32 23 17 11 356 337 310 303 321 329 328 330 335
143 141 139 137 135 134 133 132 135 136 133 132 133 132 130 132 133 131 128 125 120 113 108 105 103 100 95 91 88 86 84 81 79 71 61 57 54 51 50 51 49 39 28 25 24 21 19 21 24 25 23 16 6 2 355 338 320 305 311 323 326 328 332
144 143 139 138 137 137 135 136 139 138 134 131 130 129 129 132 133 131 128 127 126 120 113 110 108 104 100 97 93 89 83 78 76 70 63 59 56 53 51 49 45 34 23 20 20 21 20 21 23 20 14 9 1 356 354 344 330 314 306 315 321 322 326
147 144 141 139 139 139 139 140 139 137 133 130 127 124 120 119 121 121 122 128 131 127 120 115 112 108 103 102 100 95 88 79 72 69 66 62 60 56 49 44 39 26 17 16 16 17 17 19 20 18 11 6 360 354 351 347 338 325 310 308 314 317 319
149 146 145 143 140 140 142 142 140 137 135 132 128 125 118 115 115 114 116 125 133 131 125 118 116 111 104 104 104 97 91 81 68 67 71 68 64 57 46 40 34 21 14 15 14 10 10 12 13 12 8 4 360 353 347 344 339 330 317 308 310 316 317
151 149 149 146 144 144 145 144 141 138 137 133 128 125 122 118 115 112 114 122 131 133 128 121 118 114 106 107 106 97 92 85 67 70 82 78 67 51 40 37 30 20 16 13 10 6 6 6 6 5 2 360 356 351 346 343 338 331 323 315 312 314 317
152 152 150 148 148 147 145 144 140 137 136 130 123 122 121 119 116 114 115 121 127 132 130 124 121 116 110 108 106 97 94 88 72 84 103 90 64 44 35 33 28 21 16 13 10 10 10 8 5 3 360 356 353 349 345 341 337 331 325 320 317 316 317
154 153 152 150 149 147 144 143 140 137 135 125 117 118 122 122 120 118 118 121 125 129 130 126 123 119 115 112 107 101 98 86 70 88 125 111 58 43 35 31 28 21 16 15 16 17 16 10 6 2 358 354 350 347 343 340 336 331 327 323 320 319 319
156 154 153 152 151 149 147 145 141 139 134 120 114 117 121 124 123 122 121 121 124 128 129 124 121 121 120 119 112 103 97 83 67 77 122 128 58 44 36 33 29 20 17 19 21 20 16 11 5 359 356 354 350 346 342 339 335 331 328 325 322 323 322
157 156 154 153 153 152 150 147 143 136 126 114 111 118 122 122 123 123 122 122 124 125 124 122 120 120 122 124 120 110 101 87 71 67 85 114 63 43 39 39 28 19 20 22 20 15 10 7 4 360 358 356 352 347 342 337 335 332 329 326 323 324 323
159 156 153 152 152 153 152 148 142 134 123 111 108 116 121 120 119 120 121 122 123 122 120 119 117 119 123 126 129 127 114 103 84 63 71 139 78 48 45 39 26 21 21 19 12 7 4 2 2 2 2 1 358 354 346 338 334 332 330 326 323 323 321
160 158 156 153 151 152 152 148 143 138 129 115 108 112 117 117 117 120 122 122 121 120 118 117 116 123 128 128 139 145 122 105 85 61 78 135 89 54 50 33 23 19 16 10 3 360 360 360 2 3 3 2 2 1 357 350 342 337 333 327 324 323 322
163 162 160 158 154 152 152 149 146 143 136 122 111 110 111 112 114 118 123 123 121 121 121 121 124 135 144 139 141 145 125 102 82 66 85 135 110 58 45 26 16 8 4 2 360 359 359 0 3 3 3 3 3 2 3 1 356 348 340 332 326 324 325
164 163 162 161 159 156 154 152 150 148 142 131 118 112 112 112 110 112 118 121 124 127 126 126 131 146 166 178 178 160 138 113 93 77 87 125 120 58 37 20 6 357 357 1 1 1 1 2 3 2 1 3 3 2 2 1 358 354 347 340 333 327 329
163 163 162 162 161 159 157 157 155 153 148 139 126 117 116 115 110 110 112 116 121 124 126 131 146 165 180 200 208 193 173 145 117 90 82 92 91 56 30 11 360 356 359 3 5 5 4 4 3 1 1 2 1 1 2 360 356 352 348 344 339 333 332
165 165 164 164 163 161 159 159 158 156 152 146 136 124 119 117 114 111 111 111 113 113 115 121 134 146 129 101 154 178 179 168 144 104 85 82 75 56 25 5 359 360 2 5 8 9 8 5 4 2 1 1 0 1 1 358 355 353 350 348 344 340 337
167 167 166 165 164 163 161 160 160 160 157 153 147 136 125 120 116 112 109 108 105 104 104 105 104 102 93 90 108 132 153 164 155 121 97 84 67 44 24 11 5 4 4 6 10 12 10 7 6 5 2 360 359 359 358 356 355 356 356 352 349 346 344
170 169 168 166 164 164 164 163 164 165 163 159 156 149 138 129 123 117 111 105 99 95 95 94 92 90 89 89 96 105 119 140 144 125 106 90 60 39 34 25 15 9 7 10 13 14 13 9 8 7 3 0 358 356 355 354 353 354 355 353 352 351 349
173 171 169 167 165 162 162 164 167 169 168 165 162 157 151 144 137 132 125 114 103 94 90 89 89 88 88 86 81 83 95 108 105 96 94 94 76 53 41 30 22 16 13 14 15 15 15 12 10 9 5 2 358 354 353 353 351 350 350 350 350 349 348
175 173 170 169 166 163 163 165 167 170 171 170 164 159 156 153 150 149 146 136 120 102 91 88 89 88 84 80 66 59 76 93 91 87 88 84 65 46 35 28 24 20 16 16 16 16 17 15 13 11 9 5 359 353 352 353 353 352 350 348 349 348 347
177 175 173 170 167 166 167 166 165 165 167 167 164 161 162 162 161 160 160 155 143 122 101 89 90 89 81 70 54 45 66 91 93 88 82 69 49 34 28 24 22 20 17 17 18 18 18 18 16 14 12 8 2 358 356 356 355 355 354 351 350 350 348
179 178 175 172 169 168 171 172 170 166 165 167 167 168 171 174 173 172 172 171 163 146 127 104 92 89 76 61 50 51 73 94 95 85 73 60 45 33 26 21 19 18 18 20 21 20 19 19 19 17 13 10 7 4 3 1 359 358 356 353 351 350 349
180 179 177 174 172 172 175 179 180 178 176 175 176 179 182 185 186 184 183 184 179 166 152 135 113 94 73 60 57 72 90 95 88 75 62 51 40 30 24 19 17 18 20 21 22 21 20 20 19 18 16 12 10 8 7 5 2 359 356 354 352 350 349
181 180 178 177 176 177 181 186 187 187 186 184 185 189 192 194 196 194 191 191 188 180 173 164 147 109 75 69 78 96 102 96 84 73 59 46 34 25 19 15 15 19 22 22 21 20 19 20 20 19 17 15 12 11 9 6 2 359 356 354 352 349 348